Tracking 22993 objects as of 12-May-2021
HD Live streaming from Space Station
objects crossing your sky now

ARIANE 3 DEB

Track ARIANE 3 DEB now!
10-day predictions


NORAD ID: 27740
Int'l Code: 1984-114E
Perigee: 280.8 km
Apogee: 4,719.8 km
Inclination: 6.8 °
Period: 138.6 minutes
Semi major axis: 8871 km
RCS: 18.1115 m2 (large)
Launch date: November 10, 1984
Source: France (FR)
Launch site: FRENCH GUIANA (FRGUI)

Note: This is SATELLITE DEBRIS
aabbcc
Your satellite tracking list
Your tracking list is empty




NASA's NSSDC Master Catalog

Two Line Element Set (TLE):
1 27740U 84114E   21131.71322140  .00019793 -62320-5  58251-3 0  9998
2 27740   6.7622   6.6428 2501878 323.6204  60.3724 10.39014126865527
Source of the keplerian elements: AFSPC